Beaufort MCAS, SC

1:04 PM EDT on June 25, 2017 (GMT -0400)
Beaufort Marine Corps Air Station

Weather History for KNBC - February, 2013

Change the Weather History Date:

Sunday, February 3, 2013

  Actual Average Record
Temperature  
Mean Temperature 53 °F -  
Max Temperature 63 °F 62 °F 77 °F (2016)
Min Temperature 43 °F 43 °F 30 °F (2015)
Degree Days  
Heating Degree Days 12    
Growing Degree Days 3 (Base 50)    
Moisture  
Dew Point 29 °F    
Average Humidity 44    
Maximum Humidity 65    
Minimum Humidity 25    
Precipitation  
Precipitation 0.00 in - - ()
Sea Level Pressure  
Sea Level Pressure 30.05 in    
Wind  
Wind Speed 10 mph (WNW)    
Max Wind Speed 18 mph    
Max Gust Speed 25 mph    
Visibility 10 miles    
Events      
Averages and records for this station are not official NWS values.
T = Trace of Precipitation, MM = Missing Value Source: NWS Daily Summary

Daily Weather History Graph

Daily Weather History Graph

Search for Another Location

Airport or City:

Trip Planner

Search our weather history database for the weather conditions in past years. The results will help you decide how hot, cold, wet, or windy it might be!

Date:

Astronomy

Feb. 03, 2013 Rise Set
Actual Time 7:15 AM EST 5:58 PM EST
Civil Twilight 6:50 AM EST 6:23 PM EST
Nautical Twilight 6:20 AM EST 6:53 PM EST
Astronomical Twilight 5:51 AM EST 7:22 PM EST
Moon 12:40 AM EST (2/3) 11:36 AM EST (2/3)
Length of Visible Light 11h 33m
Length of Day
10h 42m
Waning Gibbous, 49% of the Moon is Illuminated
Feb 3
Waning Gibbous
Feb 10
New
Feb 17
First Quarter
Feb 25
Full
Mar 4
Last Quarter

Hourly Weather History & Observations

Time (EST) Temp. Windchill Dew Point Humidity Pressure Visibility Wind Dir Wind Speed Gust Speed Precip Events Conditions
12:56 AM 46.9 °F - 30.9 °F 54% 30.11 in 10.0 mi West 8.1 mph - N/A   Mostly Cloudy
1:56 AM 48.9 °F - 27.0 °F 43% 30.08 in 10.0 mi West 8.1 mph - N/A   Overcast
2:56 AM 45.0 °F 42.6 °F 26.1 °F 48% 30.07 in 9.0 mi West 4.6 mph - N/A   Clear
3:56 AM 48.9 °F - 26.1 °F 41% 30.06 in 9.0 mi WNW 10.4 mph - N/A   Scattered Clouds
4:56 AM 46.9 °F - 28.9 °F 50% 30.06 in 9.0 mi WNW 10.4 mph - N/A   Clear
5:56 AM 44.1 °F 39.0 °F 33.1 °F 65% 30.08 in 10.0 mi WNW 9.2 mph - N/A   Clear
6:56 AM 44.1 °F 38.6 °F 33.1 °F 65% 30.10 in 10.0 mi WNW 10.4 mph - N/A   Clear
7:56 AM 44.1 °F 39.0 °F 32.0 °F 63% 30.12 in 10.0 mi WNW 9.2 mph - N/A   Clear
8:56 AM 46.9 °F - 32.0 °F 56% 30.13 in 10.0 mi WNW 13.8 mph 25.3 mph N/A   Clear
9:56 AM 50.0 °F - 30.0 °F 46% 30.12 in 10.0 mi WNW 12.7 mph 23.0 mph N/A   Clear
10:56 AM 53.1 °F - 30.0 °F 41% 30.11 in 10.0 mi WNW 18.4 mph 23.0 mph N/A   Clear
11:56 AM 57.0 °F - 28.9 °F 34% 30.08 in 10.0 mi WNW 16.1 mph 21.9 mph N/A   Clear
12:56 PM 60.1 °F - 28.0 °F 30% 30.03 in 10.0 mi WNW 11.5 mph 19.6 mph N/A   Clear
1:56 PM 61.0 °F - 28.0 °F 29% 29.99 in 10.0 mi West 12.7 mph 20.7 mph N/A   Clear
2:56 PM 62.1 °F - 27.0 °F 26% 29.97 in 10.0 mi NW 15.0 mph 21.9 mph N/A   Clear
3:56 PM 63.0 °F - 27.0 °F 26% 29.97 in 10.0 mi West 17.3 mph 25.3 mph N/A   Clear
4:56 PM 62.1 °F - 26.1 °F 25% 29.96 in 10.0 mi WNW 17.3 mph 24.2 mph N/A   Clear
5:56 PM 57.9 °F - 28.0 °F 32% 29.98 in 10.0 mi West 6.9 mph - N/A   Clear
6:56 PM 53.1 °F - 28.0 °F 38% 29.99 in 10.0 mi West 5.8 mph - N/A   Clear
7:56 PM 50.0 °F - 28.9 °F 44% 30.01 in 10.0 mi WSW 6.9 mph - N/A   Clear
8:56 PM 53.1 °F - 28.9 °F 40% 30.03 in 10.0 mi West 4.6 mph - N/A   Clear
9:56 PM 43.0 °F 39.5 °F 30.0 °F 60% 30.04 in 10.0 mi West 5.8 mph - N/A   Clear
10:56 PM 48.9 °F - 30.0 °F 48% 30.06 in 10.0 mi WNW 4.6 mph - N/A   Clear
11:56 PM 45.0 °F 42.6 °F 30.0 °F 56% 30.07 in 10.0 mi West 4.6 mph - N/A   Clear